FW2557 Weather Reports


time (UTC)temp
C
wind
direction
speed
KPH
gust
KPH
rain 1hr
cm
rain 24hr
cm
rain mn
cm
humidity
%
barometer
mb
20260503230013 5 219 1.6 9.7 0.00 0.00 0.00 83 1019.5
20260503224510 4 49 1.6 11.3 0.00 0.00 0.00 88 1019.6
20260503223010 4 155 1.6 4.8 0.00 0.00 0.00 88 1019.5
20260503221506 3 92 1.6 6.4 0.00 0.00 0.00 89 1019.5
20260503220003 3 198 0.0 6.4 0.00 0.00 0.00 90 1019.6
20260503214505 3 159 0.0 4.8 0.00 0.00 0.00 90 1019.6
20260503213002 3 84 0.0 4.8 0.00 0.00 0.00 90 1019.5
20260503211659 3 190 0.0 6.4 0.00 0.00 0.00 90 1019.5
20260503204557 4 286 1.6 3.2 0.00 0.00 0.00 89 1019.6
20260503203057 4 290 0.0 1.6 0.00 0.00 0.00 88 1019.6
20260503201555 5 284 1.6 3.2 0.00 0.00 0.00 87 1019.6
20260503200055 5 284 0.0 1.6 0.00 0.00 0.00 86 1019.5
20260503194558 5 331 0.0 4.8 0.00 0.00 0.00 87 1019.4
20260503193048 6 205 1.6 3.2 0.00 0.00 0.00 85 1019.2
20260503191549 6 279 0.0 0.0 0.00 0.00 0.00 82 1019.1
20260503190046 6 279 0.0 4.8 0.00 0.00 0.00 80 1019.0
20260503184545 7 252 0.0 1.6 0.00 0.00 0.00 78 1018.5
20260503183047 8 5 0.0 1.6 0.00 0.00 0.00 77 1018.3
20260503181546 8 5 0.0 1.6 0.00 0.00 0.00 72 1018.1
20260503180056 9 177 0.0 1.6 0.00 0.00 0.00 74 1017.7
20260503174543 11 106 0.0 1.6 0.00 0.00 0.00 65 1017.6
20260503173043 11 11 0.0 3.2 0.00 0.00 0.00 64 1017.4
20260503171547 13 24 0.0 6.4 0.00 0.00 0.00 50 1017.4
20260503090104 15 328 14.5 33.8 0.00 0.00 0.00 38 1019.5
20260503081553 13 313 12.9 22.5 0.00 0.00 0.00 45 1019.6
20260503071603 13 315 6.4 19.3 0.00 0.00 0.00 48 1019.4
20260503054534 11 345 11.3 27.4 0.00 0.00 0.00 57 1019.4
20260503053024 11 296 9.7 22.5 0.00 0.00 0.00 64 1019.5
20260503051522 11 305 4.8 9.7 0.00 0.00 0.00 63 1019.4
20260503050025 10 355 4.8 9.7 0.00 0.00 0.00 64 1019.3
20260503044518 10 21 1.6 17.7 0.00 0.00 0.00 65 1019.0
20260503043012 10 331 4.8 17.7 0.00 0.00 0.00 63 1018.8
20260503041511 10 298 8.0 27.4 0.00 0.00 0.00 63 1018.8
20260503040008 10 317 3.2 25.7 0.00 0.00 0.00 64 1018.6
20260503034507 10 296 17.7 29.0 0.00 0.00 0.00 63 1018.6
20260503033006 10 22 3.2 14.5 0.00 0.00 0.00 67 1018.3
20260503031501 10 355 1.6 30.6 0.00 0.00 0.00 70 1017.8
20260503030058 6 341 1.6 11.3 0.00 0.00 0.00 93 1018.1
20260503024556 6 243 0.0 3.2 0.00 0.00 0.00 92 1018.1
20260503023056 6 279 0.0 1.6 0.00 0.00 0.00 92 1018.3
20260503021555 6 321 0.0 3.2 0.00 0.00 0.00 91 1018.2
20260503020055 6 49 3.2 9.7 0.00 0.00 0.00 91 1018.4
20260503014608 6 30 0.0 4.8 0.00 0.00 0.00 90 1018.3
20260503013051 7 26 3.2 11.3 0.00 0.00 0.00 91 1018.3
20260503011556 6 44 1.6 4.8 0.00 0.00 0.00 92 1018.1
20260503010050 6 150 3.2 9.7 0.00 0.00 0.00 93 1018.1
20260503004547 6 169 3.2 8.0 0.00 0.00 0.00 93 1018.3
20260503003048 6 227 1.6 4.8 0.00 0.00 0.00 92 1018.5
20260503001555 6 327 0.0 6.4 0.00 0.00 0.00 91 1018.6
20260503000041 6 54 4.8 12.9 0.00 0.00 0.00 92 1018.7
20260502234542 6 53 1.6 6.4 0.00 0.00 0.00 92 1018.7
20260502233037 6 269 0.0 4.8 0.00 0.00 0.00 92 1018.8
20260502231535 6 186 0.0 3.2 0.00 0.00 0.00 92 1019.1
20260502230135 6 105 0.0 4.8 0.00 0.00 0.00 92 1019.2